Location: Krakow
(50.0830°N, 19.9170°E)
Time: 19:29:18
(UTC+01:00)

SR - Pass Details

Date: 08 February 2023
Orbit: 582 x 867 km, 66.7° (Epoch: 20 March)

Event Time Altitude Azimuth Distance (km) Brightness Sun altitude
Rises 16:35:53 0° 295° (WNW) 3,026 ? 0.6°
Reaches altitude 10° 16:40:22 10° 334° (NNW) 2,036 ? 0.0°
Maximum altitude 16:41:22 11° 347° (NNW) 1,980 ? -0.2°
Drops below altitude 10° 16:42:22 10° 0° (N) 2,006 ? -0.3°
Sets 16:46:37 0° 40° (NE) 2,858 ? -1.0°
